Location: Table Mountain
(47.2500°N, 120.5778°W)
Time: 15:40:05
(UTC-07:00)

ISS - Pass Details

Date: 13 October 2017
Orbit: 400 x 408 km, 51.6° (Epoch: 24 October)

Event Time Altitude Azimuth Distance (km) Brightness Sun altitude
Rises 20:23:16 0° 284° (WNW) 2,322 1.6 -22.0°
Reaches altitude 10° 20:26:06 10° 258° (WSW) 1,459 -0.1 -22.5°
Maximum altitude 20:27:51 14° 225° (SW) 1,250 -1.0 -22.8°
Enters shadow 20:28:41 13° 208° (SSW) 1,300 -1.1 -22.9°
